Time,TemperatureF,DewpointF,PressureIn,WindDirection,WindDirectionDegrees,WindSpeedMPH,WindSpeedGustMPH,Humidity,HourlyPrecipIn,Conditions,Clouds,dailyrainin,SoftwareType,DateUTC
2013-12-31 00:22:00,22.0,16.0,30.13,North,-999,-999.0,-999.0,76,-99.99,,,-99.99,,2013-12-31 05:22:00,
2013-12-31 00:33:00,22.0,16.0,30.13,North,-999,-999.0,-999.0,76,-99.99,,,-99.99,,2013-12-31 05:33:00,
2013-12-31 00:42:00,22.0,16.0,30.13,North,-999,-999.0,-999.0,76,-99.99,,,-99.99,,2013-12-31 05:42:00,
2013-12-31 01:23:00,22.0,17.0,30.10,North,-999,-999.0,-999.0,79,-99.99,,,-99.99,,2013-12-31 06:23:00,
2013-12-31 01:33:00,22.0,17.0,30.10,North,-999,-999.0,-999.0,79,-99.99,,,-99.99,,2013-12-31 06:33:00,
2013-12-31 01:43:00,22.0,17.0,30.10,North,-999,-999.0,-999.0,79,-99.99,,,-99.99,,2013-12-31 06:43:00,
2013-12-31 02:23:00,23.0,18.0,30.09,North,-999,-999.0,-999.0,84,-99.99,,,-99.99,,2013-12-31 07:23:00,
2013-12-31 02:32:00,23.0,18.0,30.09,North,-999,-999.0,-999.0,84,-99.99,,,-99.99,,2013-12-31 07:32:00,
2013-12-31 02:42:00,23.0,18.0,30.09,North,-999,-999.0,-999.0,84,-99.99,,,-99.99,,2013-12-31 07:42:00,
2013-12-31 03:22:00,23.0,20.0,30.09,North,-999,-999.0,-999.0,90,-99.99,,,-99.99,,2013-12-31 08:22:00,
2013-12-31 03:32:00,23.0,20.0,30.09,North,-999,-999.0,-999.0,90,-99.99,,,-99.99,,2013-12-31 08:32:00,
2013-12-31 03:42:00,23.0,20.0,30.09,North,-999,-999.0,-999.0,90,-99.99,,,-99.99,,2013-12-31 08:42:00,
2013-12-31 04:22:00,22.0,21.0,30.08,North,-999,-999.0,-999.0,94,-99.99,,,-99.99,,2013-12-31 09:22:00,
2013-12-31 04:33:00,22.0,21.0,30.08,North,-999,-999.0,-999.0,94,-99.99,,,-99.99,,2013-12-31 09:33:00,
2013-12-31 04:43:00,22.0,21.0,30.08,North,-999,-999.0,-999.0,94,-99.99,,,-99.99,,2013-12-31 09:43:00,
2013-12-31 05:23:00,21.0,20.0,30.06,North,-999,-999.0,-999.0,93,-99.99,,,-99.99,,2013-12-31 10:23:00,
2013-12-31 05:33:00,21.0,20.0,30.06,North,-999,-999.0,-999.0,93,-99.99,,,-99.99,,2013-12-31 10:33:00,
2013-12-31 05:43:00,21.0,20.0,30.06,North,-999,-999.0,-999.0,93,-99.99,,,-99.99,,2013-12-31 10:43:00,
2013-12-31 06:22:00,21.0,-99.9,30.07,North,-999,-999.0,-999.0,100,-99.99,,,-99.99,,2013-12-31 11:22:00,
2013-12-31 06:33:00,21.0,-99.9,30.07,North,-999,-999.0,-999.0,100,-99.99,,,-99.99,,2013-12-31 11:33:00,
2013-12-31 06:43:00,21.0,-99.9,30.07,North,-999,-999.0,-999.0,100,-99.99,,,-99.99,,2013-12-31 11:43:00,
2013-12-31 07:22:00,21.0,18.0,30.07,North,-999,-999.0,-999.0,91,-99.99,,,-99.99,,2013-12-31 12:22:00,
2013-12-31 07:33:00,21.0,18.0,30.07,North,-999,-999.0,-999.0,91,-99.99,,,-99.99,,2013-12-31 12:33:00,
2013-12-31 07:42:00,21.0,18.0,30.07,North,-999,-999.0,-999.0,91,-99.99,,,-99.99,,2013-12-31 12:42:00,
2013-12-31 08:22:00,18.0,13.0,30.10,North,-999,-999.0,-999.0,80,-99.99,,,-99.99,,2013-12-31 13:22:00,
2013-12-31 08:32:00,18.0,13.0,30.10,North,-999,-999.0,-999.0,80,-99.99,,,-99.99,,2013-12-31 13:32:00,
2013-12-31 08:42:00,18.0,13.0,30.10,North,-999,-999.0,-999.0,80,-99.99,,,-99.99,,2013-12-31 13:42:00,
2013-12-31 09:23:00,18.0,12.0,30.13,North,-999,-999.0,-999.0,76,-99.99,,,-99.99,,2013-12-31 14:23:00,
2013-12-31 09:32:00,18.0,12.0,30.13,North,-999,-999.0,-999.0,76,-99.99,,,-99.99,,2013-12-31 14:32:00,
2013-12-31 09:42:00,18.0,12.0,30.13,North,-999,-999.0,-999.0,76,-99.99,,,-99.99,,2013-12-31 14:42:00,
2013-12-31 10:22:00,18.0,9.0,30.18,North,-999,-999.0,-999.0,69,-99.99,,,-99.99,,2013-12-31 15:22:00,
2013-12-31 10:33:00,18.0,9.0,30.18,North,-999,-999.0,-999.0,69,-99.99,,,-99.99,,2013-12-31 15:33:00,
2013-12-31 10:43:00,18.0,9.0,30.18,North,-999,-999.0,-999.0,69,-99.99,,,-99.99,,2013-12-31 15:43:00,
2013-12-31 11:23:00,18.0,10.0,30.21,North,-999,-999.0,-999.0,70,-99.99,,,-99.99,,2013-12-31 16:23:00,
2013-12-31 11:33:00,18.0,10.0,30.21,North,-999,-999.0,-999.0,70,-99.99,,,-99.99,,2013-12-31 16:33:00,
2013-12-31 11:43:00,18.0,10.0,30.21,North,-999,-999.0,-999.0,70,-99.99,,,-99.99,,2013-12-31 16:43:00,
2013-12-31 12:23:00,18.0,8.0,30.24,North,-999,-999.0,-999.0,62,-99.99,,,-99.99,,2013-12-31 17:23:00,
2013-12-31 12:32:00,18.0,8.0,30.24,North,-999,-999.0,-999.0,62,-99.99,,,-99.99,,2013-12-31 17:32:00,
2013-12-31 12:42:00,18.0,8.0,30.24,North,-999,-999.0,-999.0,62,-99.99,,,-99.99,,2013-12-31 17:42:00,
2013-12-31 13:22:00,18.0,8.0,30.26,North,-999,-999.0,-999.0,62,-99.99,,,-99.99,,2013-12-31 18:22:00,
2013-12-31 13:32:00,18.0,8.0,30.26,North,-999,-999.0,-999.0,62,-99.99,,,-99.99,,2013-12-31 18:32:00,
2013-12-31 13:42:00,18.0,8.0,30.26,North,-999,-999.0,-999.0,62,-99.99,,,-99.99,,2013-12-31 18:42:00,
2013-12-31 14:22:00,18.0,9.0,30.28,North,-999,-999.0,-999.0,65,-99.99,,,-99.99,,2013-12-31 19:22:00,
2013-12-31 14:32:00,18.0,9.0,30.28,North,-999,-999.0,-999.0,65,-99.99,,,-99.99,,2013-12-31 19:32:00,
2013-12-31 14:43:00,18.0,9.0,30.28,North,-999,-999.0,-999.0,65,-99.99,,,-99.99,,2013-12-31 19:43:00,
2013-12-31 15:22:00,19.0,8.0,30.26,North,-999,-999.0,-999.0,63,-99.99,,,-99.99,,2013-12-31 20:22:00,
2013-12-31 15:32:00,19.0,8.0,30.26,North,-999,-999.0,-999.0,63,-99.99,,,-99.99,,2013-12-31 20:32:00,
2013-12-31 15:42:00,19.0,8.0,30.26,North,-999,-999.0,-999.0,63,-99.99,,,-99.99,,2013-12-31 20:42:00,
2013-12-31 16:22:00,19.0,7.0,30.27,North,-999,-999.0,-999.0,59,-99.99,,,-99.99,,2013-12-31 21:22:00,
2013-12-31 16:33:00,19.0,7.0,30.27,North,-999,-999.0,-999.0,59,-99.99,,,-99.99,,2013-12-31 21:33:00,
2013-12-31 16:43:00,19.0,7.0,30.27,North,-999,-999.0,-999.0,59,-99.99,,,-99.99,,2013-12-31 21:43:00,
2013-12-31 17:23:00,18.0,8.0,30.28,North,-999,-999.0,-999.0,63,-99.99,,,-99.99,,2013-12-31 22:23:00,
2013-12-31 17:34:00,18.0,8.0,30.28,North,-999,-999.0,-999.0,63,-99.99,,,-99.99,,2013-12-31 22:34:00,
2013-12-31 17:43:00,18.0,8.0,30.28,North,-999,-999.0,-999.0,63,-99.99,,,-99.99,,2013-12-31 22:43:00,
2013-12-31 18:22:00,19.0,10.0,30.27,North,-999,-999.0,-999.0,67,-99.99,,,-99.99,,2013-12-31 23:22:00,
2013-12-31 18:33:00,19.0,10.0,30.27,North,-999,-999.0,-999.0,67,-99.99,,,-99.99,,2013-12-31 23:33:00,
2013-12-31 18:43:00,19.0,10.0,30.27,North,-999,-999.0,-999.0,67,-99.99,,,-99.99,,2013-12-31 23:43:00,
2013-12-31 19:22:00,19.0,11.0,30.28,North,-999,-999.0,-999.0,70,-99.99,,,-99.99,,2014-01-01 00:22:00,
2013-12-31 19:32:00,19.0,11.0,30.28,North,-999,-999.0,-999.0,70,-99.99,,,-99.99,,2014-01-01 00:32:00,
2013-12-31 19:42:00,19.0,11.0,30.28,North,-999,-999.0,-999.0,70,-99.99,,,-99.99,,2014-01-01 00:42:00,